User: anonymous   Login
Location: Wingville
(42.9917°N, 90.4915°W)
Time: 14:46:05
(UTC+00:00)
Language:

MOZHAYETS 4 - Orbit

View from above orbital plane
View from above orbital plane
View from above satellite
View from above satellite

Ground track
Ground track

The orbit data is extracted from the following two-line orbital elements,

1 27939U 03042A   22182.92228638  .00000272  00000-0  56793-4 0  9999
2 27939  98.1939 323.6399 0013460 157.4164 202.7621 14.67374772  3166
Epoch (UTC): 01 July 2022 22:08:05
Eccentricity: 0.0013460
inclination: 98.1939°
perigee height: 660 km
apogee height: 679 km
right ascension of ascending node: 323.6399°
argument of perigee: 157.4164°
revolutions per day: 14.67374772
mean anomaly at epoch: 202.7621°
orbit number at epoch: 316

The dashed part of the orbit path shows where the satellite is in the earth's shadow,  

DLR